Location: Cluny
(50.9333°N, 112.8167°W)
Time: 15:59:12
(UTC-07:00)

Amateur Radio Satellites - All Passes

Search period start: 27 November 2014 15:29
Search period end: 28 November 2014 15:29
Location: Cluny, 50.9333°N, 112.8167°W

Satellite Date Start Highest point End Downlink Frequencies (MHz)
Time Altitude Azimuth
JAS-2 27 Nov 15:29:02 15:35:59 37° 58° (ENE) 15:42:55 435.910
O/OREOS (USA 219) 27 Nov 15:36:19 15:40:47 75° 245° (WSW) 15:45:15 437.305
KKS-1 27 Nov 15:44:52 15:49:16 61° 289° (WNW) 15:53:38 437.445
BEESAT 27 Nov 15:47:21 15:50:51 21° 302° (WNW) 15:54:21 436.000
RS-15 27 Nov 15:50:11 16:00:13 45° 112° (ESE) 16:10:17 29.354- 29.394
Cubesat XI-IV 27 Nov 15:58:09 16:01:12 16° 51° (NE) 16:04:16 437.490
HORYU 2 27 Nov 16:07:57 16:10:58 18° 270° (W) 16:14:00 437.375
YUBILEINY 27 Nov 16:09:03 16:14:46 20° 287° (WNW) 16:20:28 435.215
AO-7 27 Nov 16:10:26 16:18:37 61° 256° (WSW) 16:26:53 29.400- 29.500
MaSat-1 27 Nov 16:18:30 16:20:58 29° 308° (NW) 16:23:16 437.345
PHONESAT 2.4 27 Nov 16:21:17 16:23:38 16° 174° (S) 16:25:59 2401.200-2431.200
VERMONT LUNAR 27 Nov 16:25:00 16:27:18 16° 179° (S) 16:29:37 437.305
AUBIESAT-1 27 Nov 16:34:06 16:36:04 12° 316° (NW) 16:38:02 437.475
CUTE-I 27 Nov 16:37:11 16:41:39 28° 59° (ENE) 16:46:07 437.470
STARS 27 Nov 16:37:21 16:41:10 30° 296° (WNW) 16:44:58 437.465
M-CUBED/EXP-1 PRIME 27 Nov 16:41:19 16:42:27 11° 318° (NW) 16:43:34 437.505
MOZHAYETS 4 27 Nov 17:01:58 17:06:14 34° 95° (E) 17:10:27
JAS-2 27 Nov 17:12:50 17:20:34 68° 259° (WSW) 17:28:24 435.910
O/OREOS (USA 219) 27 Nov 17:18:50 17:19:21 10° 264° (W) 17:19:53 437.305
KKS-1 27 Nov 17:24:11 17:25:02 11° 309° (NW) 17:25:54 437.445
Cubesat XI-IV 27 Nov 17:35:06 17:40:27 73° 71° (ENE) 17:45:49 437.490
PRISM 27 Nov 17:35:55 17:38:16 14° 89° (E) 17:40:36 437.425
PHONESAT 2.4 27 Nov 17:59:30 18:01:35 14° 191° (SSW) 18:03:40 2401.200-2431.200
RS-15 27 Nov 18:01:08 18:12:02 71° 318° (NW) 18:23:08 29.354- 29.394
VERMONT LUNAR 27 Nov 18:03:27 18:04:55 12° 196° (SSW) 18:06:24 437.305
GONETS M04 27 Nov 18:04:28 18:12:20 34° 61° (ENE) 18:20:06
AO-7 27 Nov 18:09:19 18:13:16 14° 279° (W) 18:17:15 29.400- 29.500
CUTE-I 27 Nov 18:16:09 18:21:26 57° 259° (W) 18:26:43 437.470
STRAND 1 27 Nov 18:26:25 18:30:12 21° 90° (E) 18:33:57 437.568
HO-68 27 Nov 18:32:55 18:38:30 25° 49° (NE) 18:44:05 435.675
MOZHAYETS 4 27 Nov 18:39:14 18:43:29 36° 294° (WNW) 18:47:43
CUBESAT XI-V 27 Nov 18:48:40 18:52:54 32° 95° (E) 18:57:04 437.345
AIST 1 27 Nov 18:50:20 18:53:15 18° 84° (E) 18:56:10
CANX-2 27 Nov 19:00:07 19:02:27 15° 57° (ENE) 19:04:48 2200.000
COMPASS 1 27 Nov 19:00:38 19:01:31 11° 54° (NE) 19:02:24 437.405
JAS-2 27 Nov 19:02:16 19:06:59 17° 280° (W) 19:11:45 435.910
PRISM 27 Nov 19:10:05 19:14:21 73° 287° (WNW) 19:18:33 437.425
Cubesat XI-IV 27 Nov 19:17:13 19:21:07 20° 271° (W) 19:25:01 437.490
BRITE-PL 27 Nov 19:20:02 19:23:38 22° 62° (ENE) 19:27:04 437.365/2234.400
DOVE 4 27 Nov 19:29:50 19:32:23 15° 58° (ENE) 19:34:53 437.250
CUTE 1.7 + AOD 2 27 Nov 19:33:05 19:36:34 25° 63° (ENE) 19:40:05 437.475
PCSat 27 Nov 19:46:53 19:52:06 50° 118° (ESE) 19:57:21 145.827
CINEMA 3 27 Nov 19:51:27 19:53:54 15° 58° (ENE) 19:56:20 145.822/145.860
BEESAT 3 27 Nov 19:53:09 19:56:39 27° 118° (ESE) 20:00:13 437.485
GONETS M04 27 Nov 20:01:11 20:09:59 72° 265° (W) 20:18:42
SEEDS 27 Nov 20:03:02 20:06:58 41° 68° (ENE) 20:10:58 437.485
STRAND 1 27 Nov 20:04:48 20:09:53 67° 289° (WNW) 20:14:56 437.568
UKube-1 27 Nov 20:07:08 20:10:26 21° 60° (ENE) 20:13:45 .
BEESAT 2 27 Nov 20:09:53 20:13:40 35° 120° (ESE) 20:17:30 435.950
DELFI C3 27 Nov 20:12:15 20:15:15 20° 61° (ENE) 20:18:16 145.870
FUNcube-1 27 Nov 20:14:57 20:16:49 13° 56° (NE) 20:18:42 145.935
AAUSAT CUBESAT 2 27 Nov 20:15:51 20:19:48 42° 69° (ENE) 20:23:46 437.432
RS-15 27 Nov 20:16:18 20:26:30 41° 350° (N) 20:36:57 29.354- 29.394
Oscar 11 27 Nov 20:16:32 20:20:07 26° 63° (ENE) 20:23:44 145.826/435.025
AISAT 27 Nov 20:16:46 20:18:10 11° 52° (NE) 20:19:34 437.250
HO-68 27 Nov 20:18:10 20:25:23 88° 71° (ENE) 20:32:38 435.675
GOMX 1 27 Nov 20:18:37 20:23:05 50° 70° (ENE) 20:27:17 467.674
CUBESAT XI-V 27 Nov 20:26:05 20:30:23 37° 294° (WNW) 20:34:38 437.345
AIST 1 27 Nov 20:26:06 20:30:28 59° 283° (WNW) 20:34:52
COMPASS 1 27 Nov 20:32:19 20:36:28 69° 73° (ENE) 20:40:40 437.405
CANX-2 27 Nov 20:33:36 20:37:49 83° 256° (WSW) 20:42:06 2200.000
DX 1 27 Nov 20:43:38 20:47:48 44° 68° (ENE) 20:51:58 434.975-435.025
HUMSAT D 27 Nov 20:44:10 20:46:36 16° 58° (ENE) 20:49:02 437.325/437.525
UWE-3 27 Nov 20:44:12 20:47:40 26° 64° (ENE) 20:51:07 435.000/436.395/437.385
PRISM 27 Nov 20:47:42 20:49:09 12° 307° (NW) 20:50:35 437.425
CUBEBUG 2 27 Nov 20:47:53 20:51:35 31° 66° (ENE) 20:55:16 437.445
AIST 2 27 Nov 20:52:51 20:56:56 46° 123° (ESE) 21:01:04 435.215
BRITE-PL 27 Nov 20:57:08 21:01:55 57° 259° (W) 21:06:21 437.365/2234.400
DOVE 4 27 Nov 21:05:12 21:09:42 79° 256° (WSW) 21:14:00 437.250
CUTE 1.7 + AOD 2 27 Nov 21:08:21 21:12:21 41° 262° (W) 21:16:23 437.475
ZACube-1 27 Nov 21:14:11 21:18:07 41° 69° (ENE) 21:22:03 437.345
VELOX 1 27 Nov 21:22:23 21:26:30 37° 66° (ENE) 21:30:37 145.980
CINEMA 3 27 Nov 21:26:20 21:30:39 77° 257° (WSW) 21:34:52 145.822/145.860
ESTCUBE 1 27 Nov 21:29:10 21:32:32 21° 59° (ENE) 21:35:55 437.505/2401.250
PCSat 27 Nov 21:30:37 21:35:42 39° 320° (NW) 21:40:48 145.827
BEESAT 3 27 Nov 21:30:40 21:34:42 49° 318° (NW) 21:38:48 437.485
SEEDS 27 Nov 21:39:34 21:42:59 24° 267° (W) 21:46:27 437.485
UKube-1 27 Nov 21:42:01 21:46:17 55° 259° (W) 21:50:36 .
STRAND 1 27 Nov 21:45:43 21:48:11 14° 310° (NW) 21:50:38 437.568
DELFI C3 27 Nov 21:46:16 21:50:14 52° 260° (W) 21:54:16 145.870
BEESAT 2 27 Nov 21:47:59 21:51:56 40° 321° (NW) 21:55:56 435.950
FUNcube-1 27 Nov 21:48:23 21:52:34 88° 75° (ENE) 21:56:45 145.935
AISAT 27 Nov 21:49:33 21:53:59 66° 72° (ENE) 21:58:26 437.250
Oscar 11 27 Nov 21:52:04 21:56:09 41° 262° (W) 22:00:16 145.826/435.025
AAUSAT CUBESAT 2 27 Nov 21:52:21 21:55:41 23° 268° (W) 21:59:03 437.432
50 SAT 27 Nov 21:52:51 21:56:47 53° 71° (ENE) 22:00:43 437.505
CUBEBUG 1 27 Nov 21:55:23 21:59:18 31° 65° (ENE) 22:03:12 437.445
GOMX 1 27 Nov 21:57:55 22:01:28 22° 267° (W) 22:04:54 467.674
GONETS M04 27 Nov 21:59:47 22:05:11 18° 289° (WNW) 22:10:33
TIGRISAT 27 Nov 22:01:45 22:03:56 13° 88° (E) 22:06:08 435.000
CUSAT 1 27 Nov 22:05:35 22:07:56 14° 63° (ENE) 22:10:35 437.405
HO-68 27 Nov 22:08:37 22:14:01 22° 271° (W) 22:19:27 435.675
COMPASS 1 27 Nov 22:10:19 22:12:42 15° 272° (W) 22:15:06 437.405
CANX-2 27 Nov 22:13:57 22:14:30 10° 275° (W) 22:15:03 2200.000
UNISAT 6 27 Nov 22:15:51 22:18:59 19° 91° (E) 22:22:09 437.425
HUMSAT D 27 Nov 22:17:49 22:21:56 73° 257° (WSW) 22:26:04 437.325/437.525
UWE-3 27 Nov 22:20:09 22:24:06 39° 262° (W) 22:28:01 435.000/436.395/437.385
DX 1 27 Nov 22:20:39 22:24:14 24° 266° (W) 22:27:51 434.975-435.025
CUBEBUG 2 27 Nov 22:24:32 22:28:18 31° 264° (W) 22:32:04 437.445
RS-15 27 Nov 22:31:18 22:41:53 48° 23° (NNE) 22:52:50 29.354- 29.394
AIST 2 27 Nov 22:31:47 22:35:43 34° 324° (NW) 22:39:42 435.215
POLYITAN 1 27 Nov 22:38:57 22:42:09 21° 92° (E) 22:45:20 437.675
DANDE 27 Nov 22:39:48 22:43:07 21° 68° (ENE) 22:47:11 436.750
QB50P2 27 Nov 22:40:05 22:43:20 21° 92° (E) 22:46:34 145.880/145.840
ANTELSAT 27 Nov 22:44:15 22:48:17 33° 96° (E) 22:52:23 437.575/2403.000
MaSat-1 27 Nov 22:44:23 22:44:49 10° 42° (NE) 22:45:16 437.345
AUBIESAT-1 27 Nov 22:44:29 22:46:41 14° 45° (NE) 22:48:57 437.475
DUCHIFAT 1 27 Nov 22:44:39 22:48:01 23° 93° (E) 22:51:22 145.980
M-CUBED/EXP-1 PRIME 27 Nov 22:50:37 22:53:17 16° 47° (NE) 22:56:04 437.505
ZACube-1 27 Nov 22:51:20 22:54:42 23° 267° (W) 22:58:04 437.345
TISAT 1 27 Nov 22:54:35 22:58:25 33° 66° (ENE) 23:02:15 437.305
VELOX 1 27 Nov 22:59:14 23:03:10 30° 265° (W) 23:07:07 145.980
ISS 27 Nov 23:02:57 23:05:00 16° 140° (SE) 23:07:04 145.825
NANOSAT C BR1 27 Nov 23:04:06 23:07:59 34° 97° (E) 23:11:50 145.865
ESTCUBE 1 27 Nov 23:04:31 23:09:02 62° 258° (WSW) 23:13:35 437.505/2401.250
ITUPSAT 1 27 Nov 23:05:43 23:07:23 12° 50° (NE) 23:09:04 437.325
SPROUT 27 Nov 23:10:44 23:14:47 41° 68° (ENE) 23:18:51 437.525
BEESAT 3 27 Nov 23:11:10 23:13:53 17° 340° (NNW) 23:16:37 437.485
BUGSAT 1 27 Nov 23:13:58 23:17:45 35° 97° (E) 23:21:29 437.445
QB50P1 27 Nov 23:14:12 23:18:16 43° 99° (E) 23:22:17 145.935-145.965
SWISSCUBE 27 Nov 23:14:40 23:17:18 15° 53° (NE) 23:19:56 437.505
PCSat 27 Nov 23:17:09 23:20:38 17° 344° (NNW) 23:24:08 145.827
AISAT 27 Nov 23:28:08 23:31:05 17° 270° (W) 23:34:03 437.250
FUNcube-1 27 Nov 23:28:20 23:29:35 11° 274° (W) 23:30:51 145.935
BEESAT 2 27 Nov 23:28:47 23:31:18 15° 343° (NNW) 23:33:50 435.950
50 SAT 27 Nov 23:29:43 23:32:26 17° 269° (W) 23:35:10 437.505
CUBEBUG 1 27 Nov 23:31:31 23:35:37 36° 263° (W) 23:39:44 437.445
TIGRISAT 27 Nov 23:36:50 23:41:16 84° 286° (WNW) 23:45:48 435.000
POPSAT HIP 1 27 Nov 23:39:14 23:43:28 76° 103° (ESE) 23:47:41 437.405
BEESAT 27 Nov 23:43:54 23:47:37 23° 59° (ENE) 23:51:20 436.000
CUSAT 1 27 Nov 23:46:56 23:51:24 84° 78° (ENE) 23:57:29 437.405
UNISAT 6 27 Nov 23:51:47 23:56:10 61° 289° (WNW) 00:00:37 437.425
AIST 2 28 Nov 00:13:06 00:15:34 15° 347° (NNW) 00:18:03 435.215
POLYITAN 1 28 Nov 00:14:17 00:18:23 49° 290° (WNW) 00:22:28 437.675
QB50P2 28 Nov 00:15:26 00:19:32 48° 291° (WNW) 00:23:36 145.880/145.840
AUBIESAT-1 28 Nov 00:16:33 00:20:48 67° 66° (ENE) 00:25:26 437.475
MaSat-1 28 Nov 00:17:18 00:19:31 41° 242° (WSW) 00:21:45 437.345
DUCHIFAT 1 28 Nov 00:20:05 00:24:07 44° 291° (WNW) 00:28:06 145.980
ANTELSAT 28 Nov 00:21:06 00:25:07 34° 294° (WNW) 00:29:11 437.575/2403.000
DANDE 28 Nov 00:22:27 00:26:43 58° 261° (W) 00:32:31 436.750
M-CUBED/EXP-1 PRIME 28 Nov 00:23:20 00:27:35 83° 68° (ENE) 00:32:16 437.505
STARS 28 Nov 00:30:29 00:31:23 11° 52° (NE) 00:32:16 437.465
TISAT 1 28 Nov 00:30:29 00:34:17 31° 264° (W) 00:38:05 437.305
ISS 28 Nov 00:37:55 00:41:10 59° 159° (SSE) 00:44:25 145.825
ITUPSAT 1 28 Nov 00:39:36 00:44:21 61° 70° (ENE) 00:49:08 437.325
NANOSAT C BR1 28 Nov 00:40:09 00:43:49 29° 295° (WNW) 00:47:29 145.865
RS-15 28 Nov 00:44:19 00:55:30 86° 232° (SW) 01:07:10 29.354- 29.394
SPROUT 28 Nov 00:47:27 00:51:02 25° 267° (W) 00:54:39 437.525
SWISSCUBE 28 Nov 00:49:37 00:54:26 80° 73° (ENE) 00:59:17 437.505
BUGSAT 1 28 Nov 00:49:41 00:53:11 27° 296° (WNW) 00:56:37 437.445
QB50P1 28 Nov 00:50:33 00:53:58 24° 297° (WNW) 00:57:23 145.935-145.965
BEESAT 3 28 Nov 00:51:55 00:53:45 12° 4° (N) 00:55:35 437.485
PCSat 28 Nov 01:03:03 01:06:17 16° 11° (N) 01:09:30 145.827
BEESAT 2 28 Nov 01:09:16 01:11:16 13° 8° (N) 01:13:16 435.950
KKS-1 28 Nov 01:12:07 01:16:02 31° 64° (ENE) 01:19:57 437.445
TIGRISAT 28 Nov 01:15:13 01:17:24 14° 305° (NW) 01:19:36 435.000
POPSAT HIP 1 28 Nov 01:16:21 01:18:52 16° 303° (WNW) 01:21:23 437.405
BEESAT 28 Nov 01:20:21 01:25:06 61° 258° (WSW) 01:29:53 436.000
YUBILEINY 28 Nov 01:23:07 01:30:04 27° 78° (ENE) 01:36:59 435.215
UNISAT 6 28 Nov 01:31:26 01:32:08 10° 308° (NW) 01:32:49 437.425
CUSAT 1 28 Nov 01:31:31 01:34:20 16° 270° (W) 01:37:34 437.405
Oscar 19 28 Nov 01:51:57 01:56:58 48° 99° (E) 02:01:57 437.125/150
AUBIESAT-1 28 Nov 01:53:25 01:56:20 18° 266° (W) 01:59:24 437.475
AIST 2 28 Nov 01:53:33 01:55:55 14° 11° (N) 01:58:16 435.215
Gurwin Techsat 1B 28 Nov 01:56:59 02:00:01 15° 86° (E) 02:03:01 435.225
M-CUBED/EXP-1 PRIME 28 Nov 02:01:02 02:03:21 14° 269° (W) 02:05:46 437.505
STARS 28 Nov 02:02:40 02:07:01 63° 71° (ENE) 02:11:23 437.465
ISS 28 Nov 02:14:30 02:17:48 76° 359° (N) 02:21:06 145.825
ITUPSAT 1 28 Nov 02:19:03 02:22:39 21° 269° (W) 02:26:18 437.325
SWISSCUBE 28 Nov 02:30:00 02:32:55 16° 272° (W) 02:35:50 437.505
BEESAT 3 28 Nov 02:30:06 02:33:27 22° 28° (NNE) 02:36:46 437.485
MOZHAYETS 4 28 Nov 02:36:48 02:37:04 10° 50° (NE) 02:37:19
PCSat 28 Nov 02:46:34 02:51:26 32° 36° (NE) 02:56:16 145.827
BEESAT 2 28 Nov 02:47:23 02:50:57 26° 31° (NNE) 02:54:30 435.950
KKS-1 28 Nov 02:48:31 02:52:37 36° 263° (W) 02:56:45 437.445
ITAMSAT 1 28 Nov 02:50:00 02:55:10 61° 102° (ESE) 03:00:16 435.822/435.867
RS-15 28 Nov 02:57:30 03:06:27 29° 256° (WSW) 03:15:44 29.354- 29.394
SO-50 28 Nov 03:10:03 03:13:41 24° 115° (ESE) 03:17:26 436.795
YUBILEINY 28 Nov 03:17:06 03:25:56 82° 281° (W) 03:34:46 435.215
Oscar 19 28 Nov 03:31:40 03:36:08 30° 299° (WNW) 03:40:36 437.125/150
AIST 2 28 Nov 03:31:57 03:35:50 31° 34° (NE) 03:39:41 435.215
Gurwin Techsat 1B 28 Nov 03:35:25 03:40:47 88° 106° (ESE) 03:46:06 435.225
STARS 28 Nov 03:40:58 03:43:56 18° 270° (W) 03:46:54 437.465
ISS 28 Nov 03:51:12 03:54:29 68° 199° (SSW) 03:57:46 145.825
HORYU 2 28 Nov 03:52:35 03:57:04 64° 102° (ESE) 04:01:32 437.375
AO-7 28 Nov 04:06:09 04:13:45 36° 96° (E) 04:21:17 29.400- 29.500
BEESAT 3 28 Nov 04:08:00 04:12:15 89° 49° (NE) 04:16:25 437.485
MOZHAYETS 4 28 Nov 04:08:49 04:13:19 55° 70° (ENE) 04:17:52
STRAND 1 28 Nov 04:12:59 04:13:46 10° 47° (NE) 04:14:34 437.568
JAS-2 28 Nov 04:19:20 04:23:52 18° 81° (E) 04:28:05 435.910
CUBESAT XI-V 28 Nov 04:24:15 04:25:01 10° 51° (NE) 04:25:47 437.345
BEESAT 2 28 Nov 04:25:26 04:29:40 73° 232° (SW) 04:33:50 435.950
PCSat 28 Nov 04:29:53 04:35:18 69° 238° (WSW) 04:40:41 145.827
ITAMSAT 1 28 Nov 04:30:08 04:34:18 25° 302° (WNW) 04:38:27 435.822/435.867
PRISM 28 Nov 04:31:24 04:34:42 23° 61° (ENE) 04:38:01 437.425
SO-50 28 Nov 04:49:19 04:53:52 63° 316° (NW) 04:58:35 436.795
AIST 2 28 Nov 05:10:29 05:14:44 55° 235° (SW) 05:18:54 435.215
Gurwin Techsat 1B 28 Nov 05:16:28 05:20:06 19° 306° (NW) 05:23:43 435.225
YUBILEINY 28 Nov 05:17:30 05:24:17 24° 306° (NW) 05:31:05 435.215
ISS 28 Nov 05:28:18 05:30:43 19° 217° (SW) 05:33:09 145.825
HORYU 2 28 Nov 05:30:06 05:33:21 20° 301° (WNW) 05:36:35 437.375
STRAND 1 28 Nov 05:46:53 05:51:50 49° 67° (ENE) 05:56:47 437.568
MOZHAYETS 4 28 Nov 05:47:24 05:50:54 21° 269° (W) 05:54:26
BEESAT 3 28 Nov 05:47:37 05:49:52 14° 249° (WSW) 05:52:05 437.485
Cubesat XI-IV 28 Nov 05:48:10 05:51:59 20° 89° (E) 05:55:47 437.490
O/OREOS (USA 219) 28 Nov 05:53:29 05:57:46 46° 110° (ESE) 06:02:03 437.305
CUBESAT XI-V 28 Nov 05:56:53 06:01:30 56° 70° (ENE) 06:06:08 437.345
AO-7 28 Nov 05:58:48 06:07:04 67° 297° (WNW) 06:15:19 29.400- 29.500
JAS-2 28 Nov 06:02:58 06:10:15 81° 104° (ESE) 06:16:37 435.910
PRISM 28 Nov 06:05:54 06:10:00 49° 260° (W) 06:14:09 437.425
BEESAT 2 28 Nov 06:06:07 06:07:11 11° 251° (WSW) 06:08:14 435.950
PCSat 28 Nov 06:15:28 06:17:44 13° 257° (WSW) 06:20:00 145.827
CUTE-I 28 Nov 06:28:10 06:33:09 39° 97° (E) 06:38:06 437.470
AIST 1 28 Nov 06:28:14 06:32:36 59° 76° (ENE) 06:36:53
SO-50 28 Nov 06:31:42 06:35:19 22° 339° (NNW) 06:39:00 436.795
GONETS M04 28 Nov 07:13:14 07:20:30 30° 80° (E) 07:27:47
STRAND 1 28 Nov 07:26:49 07:31:15 29° 266° (W) 07:35:41 437.568
Cubesat XI-IV 28 Nov 07:27:20 07:32:40 74° 289° (WNW) 07:37:57 437.490
O/OREOS (USA 219) 28 Nov 07:33:29 07:37:22 28° 311° (NW) 07:41:16 437.305
CUBESAT XI-V 28 Nov 07:35:38 07:39:17 22° 269° (W) 07:42:57 437.345
HO-68 28 Nov 07:43:05 07:45:45 12° 81° (E) 07:48:24 435.675
JAS-2 28 Nov 07:48:40 07:54:31 27° 307° (NW) 07:59:52 435.910
AO-7 28 Nov 07:52:28 07:58:28 23° 320° (NW) 08:04:28 29.400- 29.500
AIST 1 28 Nov 08:06:56 08:09:48 17° 276° (W) 08:12:39
CUTE-I 28 Nov 08:08:21 08:13:14 38° 297° (WNW) 08:18:04 437.470
SO-50 28 Nov 08:14:35 08:17:32 16° 4° (N) 08:20:32 436.795
CANX-2 28 Nov 08:15:49 08:17:51 13° 87° (E) 08:19:52 2200.000
QB50P1 28 Nov 08:40:40 08:41:09 10° 53° (NE) 08:41:39 145.935-145.965
CUTE 1.7 + AOD 2 28 Nov 08:48:59 08:52:32 25° 93° (E) 08:56:05 437.475
BRITE-PL 28 Nov 08:56:59 09:00:32 27° 94° (E) 09:04:07 437.365/2234.400
DOVE 4 28 Nov 09:00:01 09:02:50 17° 90° (E) 09:05:42 437.250
POPSAT HIP 1 28 Nov 09:03:25 09:06:02 16° 58° (ENE) 09:08:39 437.405
TIGRISAT 28 Nov 09:05:30 09:08:46 22° 61° (ENE) 09:12:02 435.000
GONETS M04 28 Nov 09:07:42 09:16:31 76° 283° (WNW) 09:25:27
Cubesat XI-IV 28 Nov 09:08:53 09:11:55 16° 309° (NW) 09:14:56 437.490
CINEMA 3 28 Nov 09:17:03 09:19:47 17° 90° (E) 09:22:34 145.822/145.860
SEEDS 28 Nov 09:18:25 09:22:28 40° 98° (E) 09:26:31 437.485
UNISAT 6 28 Nov 09:20:06 09:23:47 29° 64° (ENE) 09:27:30 437.425
DELFI C3 28 Nov 09:23:02 09:25:45 17° 90° (E) 09:28:27 145.870
UKube-1 28 Nov 09:25:47 09:28:45 18° 91° (E) 09:31:41 .
HO-68 28 Nov 09:27:57 09:35:04 59° 102° (ESE) 09:42:06 435.675
AAUSAT CUBESAT 2 28 Nov 09:30:00 09:34:02 40° 98° (E) 09:38:03 437.432
FUNcube-1 28 Nov 09:33:50 09:35:30 12° 87° (E) 09:37:11 145.935
Oscar 11 28 Nov 09:34:35 09:38:14 25° 93° (E) 09:41:52 145.826/435.025
POLYITAN 1 28 Nov 09:37:12 09:40:57 31° 65° (ENE) 09:44:41 437.675
QB50P2 28 Nov 09:38:08 09:41:53 31° 65° (ENE) 09:45:39 145.880/145.840
DUCHIFAT 1 28 Nov 09:42:21 09:46:10 33° 66° (ENE) 09:50:00 145.980
COMPASS 1 28 Nov 09:47:02 09:51:18 67° 102° (ESE) 09:55:32 437.405
AO-7 28 Nov 09:47:38 09:48:12 10° 347° (NNW) 09:48:46 29.400- 29.500
ANTELSAT 28 Nov 09:48:37 09:52:45 52° 70° (ENE) 09:56:57 437.575/2403.000
CANX-2 28 Nov 09:50:04 09:54:23 82° 286° (WNW) 09:58:41 2200.000
GOMX 1 28 Nov 09:53:04 09:57:14 71° 103° (ESE) 10:01:29 467.674
SO-50 28 Nov 09:55:32 09:59:38 27° 28° (NNE) 10:03:47 436.795
HUMSAT D 28 Nov 09:58:58 10:01:03 13° 88° (E) 10:03:08 437.325/437.525
NANOSAT C BR1 28 Nov 10:01:51 10:05:58 51° 70° (ENE) 10:10:06 145.865
DX 1 28 Nov 10:03:14 10:07:21 39° 98° (E) 10:11:25 434.975-435.025
UWE-3 28 Nov 10:05:02 10:08:41 27° 95° (E) 10:12:24 435.000/436.395/437.385
BUGSAT 1 28 Nov 10:08:58 10:13:04 51° 70° (ENE) 10:17:09 437.445
CUBEBUG 2 28 Nov 10:10:08 10:14:02 34° 97° (E) 10:18:00 437.445
QB50P1 28 Nov 10:12:02 10:16:14 64° 72° (ENE) 10:20:27 145.935-145.965
CUTE 1.7 + AOD 2 28 Nov 10:24:35 10:28:39 42° 291° (WNW) 10:32:42 437.475
ZACube-1 28 Nov 10:33:58 10:38:03 44° 99° (E) 10:42:11 437.345
BRITE-PL 28 Nov 10:35:25 10:39:11 34° 293° (WNW) 10:42:59 437.365/2234.400
DOVE 4 28 Nov 10:36:55 10:41:00 57° 289° (WNW) 10:45:12 437.250
POPSAT HIP 1 28 Nov 10:37:12 10:41:27 74° 257° (WSW) 10:45:43 437.405
TIGRISAT 28 Nov 10:41:08 10:45:15 50° 260° (W) 10:49:26 435.000
VELOX 1 28 Nov 10:44:37 10:48:44 36° 97° (E) 10:52:48 145.980
ESTCUBE 1 28 Nov 10:53:08 10:56:31 20° 91° (E) 10:59:52 437.505/2401.250
CINEMA 3 28 Nov 10:53:15 10:57:25 61° 288° (WNW) 11:01:41 145.822/145.860
SEEDS 28 Nov 10:54:36 10:58:10 26° 296° (WNW) 11:01:44 437.485
UNISAT 6 28 Nov 10:56:37 11:00:32 35° 263° (W) 11:04:30 437.425
DELFI C3 28 Nov 10:57:21 11:01:26 59° 288° (WNW) 11:05:31 145.870
UKube-1 28 Nov 11:01:01 11:05:20 61° 289° (WNW) 11:09:35 .
50 SAT 28 Nov 11:04:01 11:07:57 46° 99° (E) 11:11:54 437.505
AAUSAT CUBESAT 2 28 Nov 11:06:03 11:09:34 26° 296° (WNW) 11:13:05 437.432
FUNcube-1 28 Nov 11:08:13 11:12:28 86° 286° (WNW) 11:16:47 145.935
GONETS M04 28 Nov 11:08:33 11:15:07 22° 308° (NW) 11:21:43
Oscar 11 28 Nov 11:10:28 11:14:34 41° 292° (WNW) 11:18:40 145.826/435.025
AISAT 28 Nov 11:12:24 11:16:50 67° 103° (ESE) 11:21:13 437.250
POLYITAN 1 28 Nov 11:13:01 11:16:52 33° 264° (W) 11:20:45 437.675
QB50P2 28 Nov 11:13:57 11:17:48 33° 264° (W) 11:21:40 145.880/145.840
CUBEBUG 1 28 Nov 11:15:36 11:19:27 30° 95° (E) 11:23:16 437.445
HO-68 28 Nov 11:16:03 11:22:32 38° 303° (WNW) 11:28:59 435.675
DUCHIFAT 1 28 Nov 11:18:19 11:22:04 30° 264° (W) 11:25:51 145.980
COMPASS 1 28 Nov 11:23:47 11:26:36 18° 301° (WNW) 11:29:24 437.405
YUBILEINY 28 Nov 11:25:01 11:31:00 20° 49° (NE) 11:36:56 435.215
ANTELSAT 28 Nov 11:26:49 11:29:55 19° 269° (W) 11:33:02 437.575/2403.000
CANX-2 28 Nov 11:27:46 11:29:39 13° 305° (NW) 11:31:32 2200.000
GOMX 1 28 Nov 11:32:27 11:34:56 16° 302° (WNW) 11:37:26 467.674
HUMSAT D 28 Nov 11:33:13 11:37:24 76° 286° (WNW) 11:41:36 437.325/437.525
AO-7 28 Nov 11:35:47 11:37:14 11° 15° (NNE) 11:38:41 29.400- 29.500
SO-50 28 Nov 11:35:55 11:40:47 89° 229° (SW) 11:45:43 436.795
Oscar 19 28 Nov 11:36:30 11:40:15 21° 56° (ENE) 11:44:00 437.125/150
NANOSAT C BR1 28 Nov 11:39:00 11:42:09 20° 268° (W) 11:45:20 145.865
DX 1 28 Nov 11:39:46 11:43:29 28° 297° (WNW) 11:47:09 434.975-435.025
UWE-3 28 Nov 11:41:26 11:45:20 37° 293° (WNW) 11:49:19 435.000/436.395/437.385
BUGSAT 1 28 Nov 11:45:42 11:48:51 20° 268° (W) 11:52:00 437.445
CUBEBUG 2 28 Nov 11:47:01 11:50:43 30° 295° (WNW) 11:54:28 437.445
QB50P1 28 Nov 11:49:54 11:52:35 16° 270° (W) 11:55:16 145.935-145.965
TISAT 1 28 Nov 12:10:22 12:14:05 29° 95° (E) 12:17:46 437.305
ZACube-1 28 Nov 12:10:51 12:14:15 24° 297° (WNW) 12:17:42 437.345
VELOX 1 28 Nov 12:21:22 12:25:16 31° 296° (WNW) 12:29:08 145.980
SPROUT 28 Nov 12:28:31 12:32:34 40° 98° (E) 12:36:36 437.525
ESTCUBE 1 28 Nov 12:29:17 12:33:46 57° 290° (WNW) 12:38:11 437.505/2401.250
ITAMSAT 1 28 Nov 12:34:54 12:39:14 27° 60° (ENE) 12:43:34 435.822/435.867
ITUPSAT 1 28 Nov 12:37:56 12:39:08 11° 84° (E) 12:40:20 437.325
50 SAT 28 Nov 12:39:55 12:43:02 22° 298° (WNW) 12:46:09 437.505
UKube-1 28 Nov 12:40:09 12:40:38 10° 309° (NW) 12:41:07 .
FUNcube-1 28 Nov 12:46:16 12:48:13 13° 304° (NW) 12:50:11 145.935
SWISSCUBE 28 Nov 12:46:34 12:49:13 15° 87° (E) 12:51:52 437.505
AISAT 28 Nov 12:49:58 12:53:02 19° 302° (WNW) 12:56:05 437.250
CUBEBUG 1 28 Nov 12:51:53 12:55:54 36° 294° (WNW) 12:59:52 437.445
HO-68 28 Nov 13:05:53 13:08:20 12° 327° (NNW) 13:10:46 435.675
CUSAT 1 28 Nov 13:06:43 13:09:15 57° 99° (E) 13:11:59 437.405
HUMSAT D 28 Nov 13:11:09 13:12:31 11° 305° (NW) 13:13:54 437.325/437.525
Oscar 19 28 Nov 13:13:58 13:19:05 75° 256° (WSW) 13:24:14 437.125/150
BEESAT 28 Nov 13:16:08 13:20:03 25° 93° (E) 13:23:57 436.000
SO-50 28 Nov 13:17:37 13:20:44 17° 248° (WSW) 13:23:52 436.795
AO-7 28 Nov 13:20:51 13:27:05 25° 42° (NE) 13:33:21 29.400- 29.500
YUBILEINY 28 Nov 13:21:06 13:29:49 67° 75° (ENE) 13:38:27 435.215
HORYU 2 28 Nov 13:21:31 13:24:23 17° 57° (ENE) 13:27:15 437.375
Gurwin Techsat 1B 28 Nov 13:22:24 13:27:17 39° 64° (ENE) 13:32:12 435.225
AUBIESAT-1 28 Nov 13:29:34 13:33:52 29° 99° (E) 13:38:03 437.475
M-CUBED/EXP-1 PRIME 28 Nov 13:36:38 13:41:12 36° 101° (ESE) 13:45:40 437.505
DANDE 28 Nov 13:45:05 13:47:36 44° 286° (WNW) 13:50:13 436.750
TISAT 1 28 Nov 13:46:09 13:49:59 34° 294° (WNW) 13:53:47 437.305
SPROUT 28 Nov 14:04:56 14:08:32 27° 297° (WNW) 14:12:07 437.525
ESTCUBE 1 28 Nov 14:09:23 14:09:42 10° 310° (NW) 14:10:01 437.505/2401.250
ITUPSAT 1 28 Nov 14:13:04 14:17:55 74° 104° (ESE) 14:22:42 437.325
ITAMSAT 1 28 Nov 14:13:19 14:18:26 56° 259° (W) 14:23:35 435.822/435.867
O/OREOS (USA 219) 28 Nov 14:19:11 14:23:16 33° 51° (NE) 14:27:20 437.305
SWISSCUBE 28 Nov 14:22:55 14:27:46 85° 286° (WNW) 14:32:33 437.505
KKS-1 28 Nov 14:34:36 14:38:33 30° 95° (E) 14:42:28 437.445
JAS-2 28 Nov 14:36:34 14:41:57 21° 47° (NE) 14:47:16 435.910
BEESAT 28 Nov 14:53:32 14:58:11 51° 292° (WNW) 15:02:49 436.000
HORYU 2 28 Nov 14:56:07 15:00:33 76° 256° (WSW) 15:05:02 437.375
Oscar 19 28 Nov 14:57:29 14:59:21 12° 276° (W) 15:01:13 437.125/150
Gurwin Techsat 1B 28 Nov 15:02:21 15:07:17 38° 264° (W) 15:12:15 435.225
AUBIESAT-1 28 Nov 15:04:16 15:09:01 49° 298° (WNW) 15:13:40 437.475
AO-7 28 Nov 15:10:24 15:18:38 73° 65° (ENE) 15:26:57 29.400- 29.500
M-CUBED/EXP-1 PRIME 28 Nov 15:11:38 15:16:16 40° 300° (WNW) 15:20:48 437.505
MaSat-1 28 Nov 15:23:15 15:26:02 82° 121° (ESE) 15:28:35 437.345
